Home   Weather   Horten   Past weeks

Flag for Norway Past Weather in Horten, Norway — Yesterday and Last 2 Weeks

Now
41 °F

Passing clouds.


Feels Like: 35 °F
Forecast: 24 / 33 °F
Wind: 10 mph from West

Location: Oseberg

Current Time: Dec 2, 2016 at 9:11:28 pm

Latest Report: Dec 2, 2016 at 7:50 pm


Visibility: N/A

Pressure: 30.27 "Hg

Humidity: 76%

Dew Point: 34 °F

Location of HortenLocation

Past Weather in Horten — Graph

°F

Horten Temperature Yesterday

Maximum temperature yesterday: 48 °F (at 6:20 am)
Minimum temperature yesterday: 41 °F (at 8:50 pm)
Average temperature yesterday: 45 °F

High & Low Weather Summary for the Past Weeks

 TemperatureHumidityPressure
High50 °F (Nov 24, 7:50 pm)100% (Nov 25, 10:50 am)30.48 "Hg (Nov 25, 10:50 am)
Low39 °F (Nov 17, 7:50 pm)46% (Nov 27, 2:50 am)28.88 "Hg (Nov 18, 4:50 am)
Average44 °F76%29.83 "Hg
* Reported Nov 17 7:50 pm — Dec 2 7:50 pm, Horten, Weather by CustomWeather, © 2016

Note: Actual official high and low records may vary slightly from our data, if they occured in-between our weather recording intervals... More about our weather records

Advertising

Horten Weather History for the Previous 24 Hours

Scroll right to see more
 ConditionsComfort  
Time TempWeatherWind HumidityBarometerVisibility
7:50 pm
Fri, Dec 2
41 °FPassing clouds.10 mph76%30.27 "HgN/A
6:50 pm43 °FPassing clouds.6 mph71%30.30 "HgN/A
6:20 pm43 °FPassing clouds.6 mph71%30.27 "HgN/A
5:50 pm43 °FPartly cloudy.6 mph66%30.30 "HgN/A
5:20 pm43 °FPassing clouds.3 mph66%30.30 "HgN/A
4:50 pm41 °FPassing clouds.8 mph70%30.30 "HgN/A
4:20 pm43 °FPassing clouds.12 mph61%30.30 "HgN/A
3:50 pm45 °FPassing clouds.10 mph53%30.27 "HgN/A
2:50 pm45 °FPartly sunny.13 mph53%30.27 "HgN/A
2:20 pm45 °FPartly sunny.10 mph53%30.30 "HgN/A
1:50 pm43 °FPartly sunny.16 mph57%30.27 "HgN/A
1:20 pm43 °FPartly sunny.15 mph61%30.30 "HgN/A
12:50 pm45 °FPartly sunny.15 mph53%30.27 "HgN/A
12:20 pm45 °FPartly sunny.13 mph57%30.30 "HgN/A
11:50 am45 °FPartly sunny.16 mph53%30.27 "HgN/A
11:20 am45 °FScattered clouds.18 mph53%30.27 "HgN/A
10:50 am45 °FPartly sunny.18 mph49%30.27 "HgN/A
10:20 am45 °FPartly sunny.18 mph57%30.27 "HgN/A
9:50 am45 °FPartly sunny.17 mph57%30.27 "HgN/A
9:20 am45 °FPartly sunny.24 mph53%30.24 "HgN/A
8:50 am45 °FOvercast.24 mph57%30.24 "HgN/A
8:20 am45 °FPassing clouds.23 mph61%30.24 "HgN/A
7:50 am45 °FPassing clouds.22 mph53%30.24 "HgN/A
6:50 am45 °FPassing clouds.24 mph57%30.21 "HgN/A
5:48 am43 °FPassing clouds.24 mph71%30.18 "HgN/A
4:50 am45 °FPassing clouds.25 mph66%30.18 "HgN/A
3:50 am45 °FPartly cloudy.23 mph71%30.18 "HgN/A
2:50 am43 °FPartly cloudy.31 mph71%30.15 "HgN/A
1:50 am43 °FPartly cloudy.33 mph76%30.12 "HgN/A
12:50 am43 °FPassing clouds.29 mph57%30.12 "HgN/A
11:50 pm
Thu, Dec 1
43 °FPassing clouds.28 mph57%30.09 "HgN/A
10:50 pm43 °FPassing clouds.30 mph61%30.09 "HgN/A
9:50 pm41 °FPartly cloudy.35 mph70%30.04 "HgN/A
Weather by CustomWeather, © 2016

See weather overviewHow to use our weather pages